Location: Bakov nad Jizerou
(50.4784°N, 14.9394°E)
Time: 11:47:32
(UTC+00:00)

SL-8 R/B - Pass Details

Date: 30 October 2021
Orbit: 656 x 667 km, 48.4° (Epoch: 29 November)

Event Time Altitude Azimuth Distance (km) Brightness Sun altitude
Rises 17:27:32 0° 279° (W) 2,986 8.7 -17.7°
Reaches altitude 10° 17:29:56 10° 274° (W) 2,074 7.5 -18.1°
Maximum altitude 17:34:31 47° 201° (SSW) 869 4.4 -18.8°
Enters shadow 17:36:48 27° 142° (SE) 1,279 4.8 -19.2°
